User: anonymous   Login
Location: Little Chesterford
(52.0500°N, 0.1833°E)
Time: 16:07:22
(UTC+00:00)
Language:

NOSS 3-2 (A) - Orbit

View from above orbital plane
View from above orbital plane
View from above satellite
View from above satellite

Ground track
Ground track

The orbit data is extracted from the following two-line orbital elements,

1 28095U 03054A   24061.19058982 0.00000110  00000-0  88629-4 0    03
2 28095  63.3994 166.0932 0517858   3.6699 356.3300 13.41612770    06
Epoch (UTC): 01 March 2024 04:34:26
Eccentricity: 0.0517858
inclination: 63.3994°
perigee height: 716 km
apogee height: 1491 km
right ascension of ascending node: 166.0932°
argument of perigee: 3.6699°
revolutions per day: 13.41612770
mean anomaly at epoch: 356.3300°
orbit number at epoch: 0

The dashed part of the orbit path shows where the satellite is in the earth's shadow,  

DLR